This is the latest recevied weather packets stored in our database for station/object KB1QVF. If no packets are shown the sender has not sent any weather packets the latest 10 day(s).
| Time | Temp. | Humidity | Pressure | Rain* | Wind** | Luminosity | Snow |
|---|---|---|---|---|---|---|---|
| 1777733922 | 10.56° C | 70% | 1013.7 hPa | 0 mm | - | 119 W/m² | - |
| 1777733618 | 10.56° C | 70% | 1013.7 hPa | 0 mm | - | 91 W/m² | - |
| 1777733315 | 10.56° C | 70% | 1014.1 hPa | 0 mm | - | 45 W/m² | - |
| 1777733012 | 10.56° C | 77% | 1013.9 hPa | 0 mm | - | 115 W/m² | - |
| 1777732708 | 10.56° C | 78% | 1014.1 hPa | 0 mm | - | 89 W/m² | - |
| 1777732405 | 10.56° C | 78% | 1013.8 hPa | 0 mm | - | 205 W/m² | - |
| 1777732103 | 10.56° C | 77% | 1013.9 hPa | 0 mm | - | 145 W/m² | - |
| 1777731800 | 10.56° C | 77% | 1013.7 hPa | 0 mm | - | 147 W/m² | - |
| 1777731496 | 11.11° C | 76% | 1014 hPa | 0 mm | - | 159 W/m² | - |
| 1777731195 | 11.11° C | 75% | 1013.9 hPa | 0 mm | - | 165 W/m² | - |
| 1777730892 | 11.11° C | 75% | 1013.7 hPa | 0 mm | - | 153 W/m² | - |
| 1777730590 | 11.11° C | 76% | 1013.8 hPa | 0 mm | - | 177 W/m² | - |
| 1777730286 | 11.11° C | 76% | 1013.9 hPa | 0 mm | - | 250 W/m² | - |
| 1777729983 | 10.56° C | 78% | 1013.9 hPa | 0 mm | - | 171 W/m² | - |
| 1777729678 | 10.56° C | 78% | 1013.7 hPa | 0 mm | - | 159 W/m² | - |
| 1777729375 | 10.56° C | 78% | 1013.8 hPa | 0 mm | - | 239 W/m² | - |
| 1777729072 | 10° C | 79% | 1014 hPa | 0 mm | - | 170 W/m² | - |
| 1777728769 | 10° C | 80% | 1014.2 hPa | 0 mm | - | 213 W/m² | - |
| 1777728465 | 10° C | 81% | 1014.1 hPa | 0 mm | - | 273 W/m² | - |
| 1777728163 | 10° C | 81% | 1014 hPa | 0 mm | - | 274 W/m² | - |
| 1777727859 | 10° C | 85% | 1014.1 hPa | 0 mm | - | 286 W/m² | - |
| 1777727557 | 8.89° C | 85% | 1014.1 hPa | 0 mm | - | 244 W/m² | - |
| 1777727254 | 9.44° C | 86% | 1014.2 hPa | 0 mm | - | 151 W/m² | - |
| 1777726951 | 8.89° C | 87% | 1014.5 hPa | 0 mm | - | 149 W/m² | - |
| 1777726647 | 8.33° C | 86% | 1014.1 hPa | 0 mm | - | 153 W/m² | - |
* Rain latest hour (hover to see other rain measurements)
** Current wind speed in m/s (hover to see current wind gust speed)